470  
ASGM40 PGUM 020210  
RWRGUM  
WEATHER ROUNDUP FOR THE MARIANAS  
NATIONAL WEATHER SERVICE TIYAN GU  
1200 PM CHST MON AUG 02 2021  
 
GUZ001>004-020300-  
MARIANA ISLANDS-  
 
CITY SKY/WX TMP DP RH WIND PRES REMARKS
 
GUAM AIRPORT TSTM 81 75 83 S6 29.81F  
ANDERSEN AFB LGT RAIN 75 73 94 W8 29.81S  
ROTA AIRPORT RAIN 75 72 88 W15 29.78R FOG  
TINIAN AP MOSUNNY 82 77 83 W15 29.75F HX 91  
SAIPAN AP MOSUNNY 82 79 89 SW12 29.76F HX 93  
 

 
 
 
 
CLICK HERE TO GO TO PREVIOUS BULLETINS.

The Nexlab GU Page Main Text Page